Decatur, TX

7:21 PM CDT on August 24, 2016 (GMT -0500)
Decatur

Weather History for KLUD - February, 2014

Change the Weather History Date:

Saturday, February 1, 2014

  Actual Average (KDTO) Record (KDTO)
Temperature  
Mean Temperature 40 °F -  
Max Temperature 44 °F 54 °F 84 °F (1997)
Min Temperature 35 °F 33 °F 12 °F (2011)
Degree Days  
Heating Degree Days 26    
Moisture  
Dew Point 30 °F    
Average Humidity 69    
Maximum Humidity 84    
Minimum Humidity 53    
Precipitation  
Precipitation 0.00 in - - ()
Sea Level Pressure  
Sea Level Pressure 29.89 in    
Wind  
Wind Speed 7 mph (North)    
Max Wind Speed 15 mph    
Max Gust Speed 21 mph    
Visibility 8 miles    
Events      
Averages and records for this station are not official NWS values.
T = Trace of Precipitation, MM = Missing Value Source: NWS Daily Summary

Daily Weather History Graph

Daily Weather History Graph

Search for Another Location

Airport or City:

Trip Planner

Search our weather history database for the weather conditions in past years. The results will help you decide how hot, cold, wet, or windy it might be!

Date:

Astronomy

Feb. 01, 2014 Rise Set
Actual Time 7:25 AM CST 6:02 PM CST
Civil Twilight 6:59 AM CST 6:28 PM CST
Nautical Twilight 6:30 AM CST 6:57 PM CST
Astronomical Twilight 6:01 AM CST 7:27 PM CST
Moon 8:25 AM CST (2/1) 8:28 PM CST (2/1)
Length of Visible Light 11h 28m
Length of Day
10h 36m
Waxing Crescent, 5% of the Moon is Illuminated
Feb 1
Waxing Crescent
Feb 6
First Quarter
Feb 14
Full
Feb 22
Last Quarter
Mar 1
New

Hourly Weather History & Observations

Time (CST) Temp. Windchill Dew Point Humidity Pressure Visibility Wind Dir Wind Speed Gust Speed Precip Events Conditions
12:15 AM 40.8 °F 37.8 °F 32.5 °F 72% 29.76 in 10.0 mi WNW 4.6 mph - N/A   Clear
12:35 AM 40.1 °F 36.1 °F 32.2 °F 73% 29.76 in 10.0 mi NNW 5.8 mph - N/A   Scattered Clouds
12:55 AM 40.1 °F 35.3 °F 32.2 °F 73% 29.77 in 10.0 mi NW 6.9 mph - N/A   Mostly Cloudy
1:15 AM 39.6 °F 34.0 °F 32.0 °F 74% 29.78 in 10.0 mi NW 8.1 mph - N/A   Overcast
1:35 AM 38.8 °F 33.2 °F 32.0 °F 76% 29.79 in 10.0 mi NNW 8.1 mph - N/A   Overcast
1:55 AM 38.5 °F 34.1 °F 32.0 °F 78% 29.79 in 10.0 mi NW 5.8 mph - N/A   Overcast
2:15 AM 37.9 °F 32.7 °F 31.8 °F 79% 29.78 in 7.0 mi NNW 6.9 mph - N/A   Overcast
2:35 AM 38.3 °F 33.2 °F 32.0 °F 78% 29.78 in 10.0 mi NW 6.9 mph - N/A   Overcast
2:55 AM 37.8 °F 34.2 °F 32.0 °F 80% 29.78 in 10.0 mi NW 4.6 mph - N/A   Overcast
3:15 AM 37.9 °F 32.7 °F 32.0 °F 79% 29.77 in 10.0 mi NNW 6.9 mph - N/A   Overcast
3:35 AM 37.8 °F 31.8 °F 32.0 °F 80% 29.77 in 10.0 mi NNW 8.1 mph - N/A   Overcast
3:55 AM 37.6 °F 34.0 °F 32.0 °F 80% 29.77 in 7.0 mi NNW 4.6 mph - N/A   Overcast
4:15 AM 37.6 °F 32.3 °F 32.0 °F 80% 29.78 in 7.0 mi NNW 6.9 mph - N/A   Overcast
4:35 AM 37.6 °F 32.3 °F 32.0 °F 80% 29.78 in 7.0 mi NNW 6.9 mph - N/A   Overcast
4:55 AM 37.4 °F 33.8 °F 32.0 °F 81% 29.78 in 7.0 mi NNW 4.6 mph - N/A   Overcast
5:15 AM 37.6 °F 31.6 °F 32.0 °F 80% 29.80 in 7.0 mi NW 8.1 mph - N/A   Overcast
5:35 AM 37.4 °F 33.8 °F 32.0 °F 81% 29.81 in 7.0 mi NNW 4.6 mph - N/A   Overcast
5:55 AM 37.2 °F 31.9 °F 32.0 °F 81% 29.81 in 7.0 mi NNW 6.9 mph - N/A   Overcast
6:15 AM 37.0 °F 30.4 °F 32.0 °F 82% 29.82 in 7.0 mi NNW 9.2 mph - N/A   Overcast
6:35 AM 36.7 °F 31.2 °F 32.0 °F 83% 29.83 in 7.0 mi NNW 6.9 mph - N/A   Overcast
6:55 AM 36.5 °F 31.8 °F 32.0 °F 84% 29.84 in 7.0 mi NNW 5.8 mph - N/A   Overcast
7:15 AM 36.5 °F 30.3 °F 32.0 °F 84% 29.85 in 7.0 mi NNW 8.1 mph - N/A   Overcast
7:35 AM 35.8 °F 28.3 °F 31.5 °F 84% 29.87 in 7.0 mi NNW 10.4 mph - N/A   Overcast
7:55 AM 35.6 °F 29.9 °F 31.1 °F 84% 29.87 in 7.0 mi NNW 6.9 mph - N/A   Overcast
8:15 AM 36.1 °F 31.4 °F 31.1 °F 82% 29.87 in 5.0 mi North 5.8 mph - N/A   Haze
8:35 AM 36.0 °F 28.5 °F 30.9 °F 82% 29.89 in 5.0 mi North 10.4 mph - N/A   Haze
8:55 AM 36.3 °F 30.8 °F 30.9 °F 81% 29.89 in 7.0 mi North 6.9 mph - N/A   Overcast
9:15 AM 36.3 °F 31.6 °F 30.7 °F 80% 29.90 in 7.0 mi NNW 5.8 mph - N/A   Overcast
9:35 AM 36.1 °F 30.6 °F 30.2 °F 79% 29.92 in 5.0 mi North 6.9 mph - N/A   Haze
9:55 AM 36.5 °F 33.9 °F 30.2 °F 78% 29.92 in 5.0 mi North 3.5 mph - N/A   Haze
10:15 AM 36.5 °F 30.3 °F 30.2 °F 78% 29.92 in 5.0 mi NNW 8.1 mph - N/A   Haze
10:35 AM 37.2 °F 31.2 °F 30.9 °F 78% 29.92 in 5.0 mi NNW 8.1 mph - N/A   Haze
10:55 AM 38.3 °F 33.9 °F 31.5 °F 76% 29.93 in 5.0 mi NNW 5.8 mph - N/A   Haze
11:15 AM 38.5 °F 32.7 °F 31.8 °F 77% 29.93 in 7.0 mi North 8.1 mph - N/A   Overcast
11:35 AM 39.0 °F 34.0 °F 31.5 °F 74% 29.93 in 7.0 mi NNW 6.9 mph - N/A   Overcast
11:55 AM 39.2 °F 34.2 °F 31.3 °F 73% 29.92 in 5.0 mi NNW 6.9 mph - N/A   Haze
12:15 PM 39.0 °F 33.4 °F 31.3 °F 74% 29.92 in 7.0 mi NNW 8.1 mph - N/A   Overcast
12:35 PM 39.7 °F 34.3 °F 31.1 °F 71% 29.91 in 7.0 mi NNW 8.1 mph - N/A   Overcast
12:55 PM 40.6 °F 35.4 °F 31.3 °F 69% 29.91 in 7.0 mi NNW 8.1 mph - N/A   Overcast
1:15 PM 40.6 °F 34.8 °F 31.1 °F 69% 29.90 in 7.0 mi NNW 9.2 mph - N/A   Overcast
1:35 PM 41.4 °F 36.2 °F 30.9 °F 66% 29.89 in 7.0 mi NNW 8.1 mph - N/A   Overcast
1:55 PM 42.6 °F 38.4 °F 30.7 °F 63% 29.89 in 7.0 mi NNW 6.9 mph - N/A   Overcast
2:15 PM 42.4 °F 38.8 °F 30.7 °F 63% 29.89 in 7.0 mi NNW 5.8 mph - N/A   Overcast
2:35 PM 42.8 °F 38.6 °F 30.2 °F 61% 29.89 in 10.0 mi NW 6.9 mph - N/A   Overcast
2:55 PM 43.2 °F 38.4 °F 30.2 °F 60% 29.89 in 7.0 mi North 8.1 mph - N/A   Overcast
3:15 PM 43.0 °F 38.8 °F 30.0 °F 60% 29.89 in 10.0 mi NNW 6.9 mph - N/A   Overcast
3:35 PM 43.0 °F 38.2 °F 29.8 °F 60% 29.89 in 10.0 mi North 8.1 mph - N/A   Overcast
3:55 PM 42.8 °F 39.3 °F 29.3 °F 59% 29.89 in 10.0 mi North 5.8 mph - N/A   Mostly Cloudy
4:15 PM 42.8 °F 40.1 °F 29.1 °F 58% 29.89 in 10.0 mi North 4.6 mph - N/A   Overcast
4:35 PM 43.2 °F 39.0 °F 29.1 °F 58% 29.90 in 10.0 mi North 6.9 mph - N/A   Mostly Cloudy
4:55 PM 43.7 °F 40.3 °F 29.1 °F 57% 29.91 in 10.0 mi North 5.8 mph - N/A   Mostly Cloudy
5:15 PM 43.9 °F 39.3 °F 28.8 °F 55% 29.92 in 10.0 mi North 8.1 mph - N/A   Mostly Cloudy
5:35 PM 43.9 °F 41.3 °F 28.9 °F 56% 29.92 in 10.0 mi NNE 4.6 mph - N/A   Mostly Cloudy
5:55 PM 44.2 °F 39.7 °F 28.6 °F 54% 29.93 in 10.0 mi North 8.1 mph - N/A   Mostly Cloudy
6:15 PM 44.1 °F 39.5 °F 28.4 °F 54% 29.94 in 10.0 mi North 8.1 mph - N/A   Mostly Cloudy
6:35 PM 43.9 °F 39.9 °F 28.4 °F 55% 29.95 in 10.0 mi North 6.9 mph - N/A   Mostly Cloudy
6:55 PM 44.1 °F 39.5 °F 28.4 °F 54% 29.95 in 10.0 mi NNE 8.1 mph - N/A   Mostly Cloudy
7:15 PM 44.1 °F 39.5 °F 28.2 °F 54% 29.96 in 10.0 mi NNE 8.1 mph - N/A   Overcast
7:35 PM 43.9 °F 40.5 °F 28.2 °F 54% 29.97 in 10.0 mi NNE 5.8 mph - N/A   Overcast
7:55 PM 44.1 °F 40.8 °F 28.4 °F 54% 29.98 in 10.0 mi North 5.8 mph - N/A   Mostly Cloudy
8:15 PM 44.1 °F 39.5 °F 28.2 °F 54% 29.99 in 10.0 mi NNE 8.1 mph - N/A   Mostly Cloudy
8:35 PM 43.9 °F 37.9 °F 28.2 °F 54% 29.99 in 10.0 mi NNE 11.5 mph - N/A   Overcast
8:55 PM 43.7 °F 37.3 °F 27.5 °F 53% 30.00 in 10.0 mi NNE 12.7 mph 18.4 mph N/A   Overcast
9:15 PM 42.1 °F 34.9 °F 26.6 °F 54% 30.00 in 10.0 mi NE 13.8 mph - N/A   Overcast
9:35 PM 41.2 °F 35.0 °F 26.2 °F 55% 30.02 in 10.0 mi NNE 10.4 mph 16.1 mph N/A   Overcast
9:55 PM 40.1 °F 32.4 °F 25.3 °F 56% 30.02 in 10.0 mi NNE 13.8 mph 18.4 mph N/A   Mostly Cloudy
10:15 PM 39.2 °F 31.6 °F 25.2 °F 57% 30.03 in 10.0 mi NE 12.7 mph 20.7 mph N/A   Mostly Cloudy
10:35 PM 38.3 °F 30.9 °F 24.8 °F 58% 30.04 in 10.0 mi NNE 11.5 mph 18.4 mph N/A   Mostly Cloudy
10:55 PM 37.4 °F 29.8 °F 24.6 °F 60% 30.04 in 10.0 mi NNE 11.5 mph 19.6 mph N/A   Mostly Cloudy
11:15 PM 36.7 °F 28.9 °F 24.8 °F 62% 30.05 in 10.0 mi North 11.5 mph - N/A   Overcast
11:35 PM 36.1 °F 26.9 °F 24.8 °F 63% 30.05 in 10.0 mi NNE 15.0 mph 19.6 mph N/A   Overcast
11:55 PM 35.2 °F 26.2 °F 24.3 °F 64% 30.04 in 10.0 mi NNE 13.8 mph 18.4 mph N/A   Overcast